STARLINK-31966, 59944

Orbit data source: Space-Track

STARLINK-31966, 59944 is a payload satellite owned by SpaceX/Seattle (US) in LEO that was launched on Sat, 01 Jun 2024 UTC via an FALCON 9 launch vehicle from the Air Force Eastern Test Range (AFETR). Payload-class satellites include a variety of spacecraft equipped with specific instruments for various scientific and technological missions. These include communications satellites like Starlink; space stations such as the ISS; scientific satellites like the Hubble; Earth observation satellites from companies like Planet Labs, Umbra, and HawkEye 360; GPS; miniature CubeSats for education and research; and military/defense satellites.

Loading next visibility...
Identifier
59944, 2024-106Y
Orbit
LEO
Country
Flag of USUS
Related business
Manufacturer
SpaceX/Seattle
Mission
Operational Commercial Communications
Bus & Motor
STARLINK V2M, Unknown motor
Mass
730 kg wet, ~700 kg dry
Launch date (UTC)
2024-06-01 (2 years ago)
Launch vehicle
FALCON 9
Launch site
Air Force Eastern Test Range (AFETR)
Object type
Payload
Rocket body
Debris
Shape & HBR
Box + 2 Pan, 17.7 m
Radar Cross Section
33.884 m², Large (>1 m²)

Expand to show TLE details & history
Last TLE update: 13 hours ago

TLE from 13 hours ago
0 STARLINK-31966
1 59944U 24106Y   26033.65949115  .00002665  00000-0  10630-3 0  9990
2 59944  43.0007 170.5012 0001164 275.7078  84.3641 15.27587669 95210
Epoch: 2026-02-02T15:49Z
TLE epoch observation values (Epoch: 2026-02-02T15:49:40.035Z)
Latitude
-0.00001°
Longitude
160.23278°
Altitude
482.723 km
Speed
7.626 km/s
True Right ascension
11h 22m 00s
True Declination
0° 00' 00"
Sunlit
Object was in full shadow at epoch
Visualization orbit readout
Latitude
Unknown
Longitude
Unknown
Altitude
Unknown
Speed
Unknown
Apparent Right ascension
Unknown
Apparent Declination
Unknown
Sunlit
N/A
Visualization observer readout
Local Sidereal Time
06:32:33
Azimuth
Unknown
Elevation
Unknown
Doppler factor
Unknown
Orbital elements
Apogee altitude
485.77 km
Perigee altitude
484.172 km
Semi-major axis
6,863.108 km
Eccentricity
0.00012
Inclination
43.0007°
RAAN
170.5012°
Arg. of periapsis
275.7078°
True anomaly
84.37737°
Mean anomaly
84.3641°
Eccentric anomaly
84.37074°
Mean motion
3.81735 °/min
Orbital period
94.31 mins
BSTAR
0.0001063
Loading maneuver chart data...
Computing Atmospheric mass density...
Loading historical data...
Loading historical data...
Loading historical data...
Loading historical data...
Loading historical data...
Loading historical data...
Loading historical data...

Documentation

Showing up to 5 results
|